Location: Andiroba
(19.8650°S, 43.9258°W)
Time: 00:47:46
(UTC+00:00)

SL-08 R/B - Pass Details

Date: 15 June 2024
Orbit: 944 x 1007 km, 83.0° (Epoch: 24 July)

Event Time Altitude Azimuth Distance (km) Brightness Sun altitude
Exits shadow 07:41:51 50° 234° (SW) 1,232 4.6 -24.2°
Maximum altitude 07:42:58 57° 272° (W) 1,142 4.5 -24.0°
Drops below altitude 10° 07:49:00 10° 349° (N) 2,695 6.9 -22.6°
Sets 07:51:30 0° 353° (N) 3,627 7.6 -22.1°
